Zurück zum Katalog

QIANFAN-139

AktivKommunikationPO
NORAD 69085·PAYLOAD·🇨🇳 China

Gestartet May 12, 2026 von Taiyuan Satellite Launch Center

Loading…

Nächste Überflüge (nächste 24 Stunden)

TLE

AktuellSource: Space-Track

Epoche: Sep 14, 2026, 22:34 UTC

1 69085U 26104N   26257.94070560  .00000119  00000-0  16629-3 0  9992
2 69085  88.9907 332.3145 0002506 103.5381 256.6050 13.51029909 17276

Verfolge QIANFAN-139 in Echtzeit mit AllMySat

Download on the App Store